This demonstration page uses our WeatherBlox Daily Observations layout. Learn more.

Left ArrowRight Arrow

Hourly Observations for November 17, 2015

Temp ( °F °C ) Dew Point ( °F °C ) Humidity (%) Winds ( mph kmh ) Pressure ( in mb ) Visibility ( mi km ) Precip ( " mm )
12:53 am 00:53 Cloudy 50 10 43 6.1 77 77 E 3 6 30.21 1023 10 16 0.00 0.00
1:53 am 01:53 Cloudy 51 10.6 43 6.1 74 74 ESE 3 6 30.19 1022 10 16 0.00 0.00
2:53 am 02:53 Cloudy 51 10.6 43 6.1 74 74 E 3 6 30.20 1023 10 16 0.00 0.00
3:53 am 03:53 Mostly Cloudy 51 10.6 42 5.6 71 71 E 3 6 30.18 1022 10 16 0.00 0.00
4:53 am 04:53 Clear 49 9.4 41 5 74 74 E 3 6 30.18 1022 10 16 0.00 0.00
5:53 am 05:53 Mostly Cloudy 49 9.4 42 5.6 77 77 E 6 9 30.18 1022 10 16 0.00 0.00
6:53 am 06:53 Cloudy 51 10.6 42 5.6 71 71 E 3 6 30.17 1022 10 16 0.00 0.00
7:53 am 07:53 Cloudy 51 10.6 42 5.6 71 71 E 5 7 30.19 1022 10 16 0.00 0.00
8:53 am 08:53 Cloudy with Light Rain 52 11.1 42 5.6 69 69 Calm 30.19 1022 10 16 0.00 0.03
9:53 am 09:53 Cloudy with Light Rain 52 11.1 45 7.2 77 77 Calm 30.19 1022 9 14 0.01 0.25
10:53 am 10:53 Mostly Cloudy 53 11.7 45 7.2 74 74 ESE 8 13 30.15 1021 10 16 0.00 0.03
11:53 am 11:53 Cloudy with Light Rain 56 13.3 44 6.7 65 65 SE 7 11 30.12 1020 10 16 0.00 0.03
12:53 pm 12:53 Mostly Sunny 60 15.6 44 6.7 56 56 VRB 7 11 30.08 1019 10 16 0.00 0.03
1:53 pm 13:53 Cloudy 62 16.7 43 6.1 50 50 VRB 5 7 30.07 1018 10 16 0.00 0.00
2:53 pm 14:53 Cloudy 63 17.2 43 6.1 48 48 SE 3 6 30.06 1018 10 16 0.00 0.00
3:53 pm 15:53 Mostly Sunny 63 17.2 43 6.1 48 48 ESE 7 11 30.06 1018 10 16 0.00 0.00
4:53 pm 16:53 Mostly Cloudy 62 16.7 39 3.9 43 43 ESE 7 11 30.04 1017 10 16 0.00 0.00
6:53 pm 18:53 Clear 60 15.6 32 0 35 35 VRB 6 9 30.04 1017 10 16 0.00 0.00
7:53 pm 19:53 Clear 60 15.6 33 0.6 36 36 VRB 5 7 30.03 1017 10 16 0.00 0.00
8:53 pm 20:53 Clear 60 15.6 35 1.7 39 39 SE 6 9 30.02 1017 10 16 0.00 0.00
9:53 pm 21:53 Clear 60 15.6 35 1.7 39 39 ESE 6 9 30.01 1016 10 16 0.00 0.00
10:53 pm 22:53 Clear 60 15.6 34 1.1 38 38 ESE 6 9 30.00 1016 10 16 0.00 0.00
11:53 pm 23:53 Clear 60 15.6 35 1.7 39 39 VRB 5 7 29.99 1016 10 16 0.00 0.00

Powered by AerisWeather